Voltar ao catálogo

STARLINK-32758

AtivoComunicaçõesVLEO
NORAD 62744·PAYLOAD·🇺🇸 United States

Lançado Jan 21, 2025 de Cape Canaveral Space Force Station

Loading…

Próximas Passagens (próximas 24 horas)

TLE

AtualizadoSource: CelesTrak SupGP

Época: Sep 14, 2026, 15:25 UTC

1 62744C 25014K   26257.64284722  .00042265  00000+0  15312-2 0  2571
2 62744  43.0020 170.6846 0001579 261.2637 184.9920 15.27549211    16

Acompanhe STARLINK-32758 em tempo real com AllMySat

Download on the App Store